User: anonymous   Login
Location: Fremont
(37.5480°N, 121.9880°W)
Time: 01:46:34
(UTC-07:00)
Language:

Cosmos 1844 Rocket - Orbit

View from above orbital plane
View from above orbital plane
View from above satellite
View from above satellite

Ground track
Ground track

The orbit data is extracted from the following two-line orbital elements,

1 17974U 87041B   16268.03951507  .00000056  00000-0  51292-4 0  9995
2 17974  71.0066 110.5817 0011744  77.7095  32.6245 14.17209116518979
Epoch (UTC): 24 September 2016 00:56:54
Eccentricity: 0.0011744
inclination: 71.0066°
perigee height: 826 km
apogee height: 843 km
right ascension of ascending node: 110.5817°
argument of perigee: 77.7095°
revolutions per day: 14.17209116
mean anomaly at epoch: 32.6245°
orbit number at epoch: 51897

The dashed part of the orbit path shows where the satellite is in the earth's shadow,  

DLR